Hourly Data Report for June 16, 2020

TORONTO CITY
ONTARIO
Current Station Operator: ECCC - MSC

43°40'00.000" N
79°24'00.000" W
112.50 m
6158355
71508
XTO

Download Data

Hourly Data (June 2020)
Hourly Data Report for June 16, 2020
TIME
LST
Temp Definition
°C
Dew Point Definition
°C
Rel Hum Definition
%
Precip. Amount Definition
mm

Wind Dir Definition
10's deg

Wind Spd Definition
km/h
Visibility Definition
km
Stn Press Definition
kPa
Hmdx Definition


Wind Chill Definition


Weather Definition


00:00 14.1 2.7 46 0.0       101.58     LegendNANA
01:00 14.0 3.3 48 0.0       101.55     LegendNANA
02:00 13.7 4.2 52 0.0       101.55     LegendNANA
03:00 13.0 4.4 56 0.0       101.56     LegendNANA
04:00 12.8 4.4 57 0.0       101.55     LegendNANA
05:00 12.3 4.7 60 0.0       101.57     LegendNANA
06:00 15.1 4.5 49 0.0       101.60     LegendNANA
07:00 17.0 4.2 43 0.0       101.64     LegendNANA
08:00 19.5 5.3 39 0.0       101.66     LegendNANA
09:00 19.8 3.4 34 0.0       101.65     LegendNANA
10:00 21.2 4.2 33 0.0       101.63     LegendNANA
11:00 21.2 3.6 32 0.0       101.65     LegendNANA
12:00 21.2 3.5 31 0.3       101.59     LegendNANA
13:00 21.6 4.2 32 0.0       101.53     LegendNANA
14:00 22.1 3.9 30 0.2       101.46     LegendNANA
15:00 23.3 4.6 30 0.0       101.41     LegendNANA
16:00 23.6 2.7 26 0.3       101.33     LegendNANA
17:00 22.9 4.5 30 0.4       101.27     LegendNANA
18:00 21.2 3.6 31 0.0       101.22     LegendNANA
19:00 20.4 3.6 33 0.0       101.21     LegendNANA
20:00 19.3 3.1 34 0.0       101.17     LegendNANA
21:00 18.3 4.1 39 0.0       101.20     LegendNANA
22:00 17.2 5.8 47 0.0       101.18     LegendNANA
23:00 16.6 6.8 53 0.0       101.21     LegendNANA

Notes on Data Quality.

Legend

  • E = Estimated
  • M = Missing
  • NA = Not Available*
  • [empty] = Indicates an unobserved value
Date modified: